Weather History for KINS - October, 2013

Change the Weather History Date:

Tuesday, October 29, 2013

  Actual Average (KDRA) Record (KDRA)
Temperature  
Mean Temperature 48 °F -  
Max Temperature 58 °F 66 °F 84 °F (2008)
Min Temperature 39 °F 42 °F 34 °F (1996)
Degree Days  
Heating Degree Days 18    
Moisture  
Dew Point 32 °F    
Average Humidity 51    
Maximum Humidity 62    
Minimum Humidity 36    
Precipitation  
Precipitation 0.00 in - - ()
Sea Level Pressure  
Sea Level Pressure 29.88 in    
Wind  
Wind Speed 5 mph (NNE)    
Max Wind Speed 20 mph    
Max Gust Speed -    
Visibility 10 miles    
Events      
Averages and records for this station are not official NWS values.
T = Trace of Precipitation, MM = Missing Value Source: NWS Daily Summary

Daily Weather History Graph

Daily Weather History Graph

Search for Another Location

Airport or City:

Trip Planner

Search our weather history database for the weather conditions in past years. The results will help you decide how hot, cold, wet, or windy it might be!

Date:

Astronomy

Oct. 29, 2013 Rise Set
Actual Time 7:03 AM PDT 5:48 PM PDT
Civil Twilight 6:36 AM PDT 6:15 PM PDT
Nautical Twilight 6:06 AM PDT 6:45 PM PDT
Astronomical Twilight 5:36 AM PDT 7:15 PM PDT
Moon 2:05 AM PDT (10/29) 2:57 PM PDT (10/29)
Length of Visible Light 11h 38m
Length of Day
10h 45m
Waning Crescent, 24% of the Moon is Illuminated
Oct 29
Waning Crescent
Nov 3
New
Nov 9
First Quarter
Nov 17
Full
Nov 25
Last Quarter

Hourly Weather History & Observations

Time (PDT) Temp. Windchill Dew Point Humidity Pressure Visibility Wind Dir Wind Speed Gust Speed Precip Events Conditions
12:58 AM 48.9 °F - 31.6 °F 51% 29.79 in 10.0 mi Variable 2.3 mph - N/A   Clear
1:58 AM 46.2 °F 44.1 °F 31.1 °F 56% 29.81 in 10.0 mi NNE 4.6 mph - N/A   Clear
2:58 AM 43.9 °F 42.3 °F 28.6 °F 55% 29.81 in 10.0 mi Variable 3.5 mph - N/A   Clear
3:58 AM 43.9 °F - 29.8 °F 58% 29.83 in 10.0 mi Calm Calm - N/A   Clear
4:58 AM 43.9 °F - 29.1 °F 56% 29.84 in 10.0 mi Calm Calm - N/A   Clear
5:58 AM 40.8 °F - 28.8 °F 62% 29.85 in 10.0 mi ENE 2.3 mph - N/A   Clear
6:58 AM 39.7 °F 36.5 °F 27.5 °F 62% 29.86 in 10.0 mi WSW 4.6 mph - N/A   Clear
7:58 AM 40.8 °F 38.8 °F 28.8 °F 62% 29.89 in 10.0 mi West 3.5 mph - N/A   Clear
8:58 AM 45.9 °F - 30.7 °F 56% 29.90 in 10.0 mi NW 2.3 mph - N/A   Clear
9:58 AM 50.0 °F - 31.5 °F 49% 29.90 in 10.0 mi Calm Calm - N/A   Clear
10:58 AM 53.1 °F - 31.6 °F 44% 29.91 in 10.0 mi NNW 2.3 mph - N/A   Clear
11:58 AM 53.6 °F - 30.6 °F 41% 29.89 in 10.0 mi Variable 1.2 mph - N/A   Clear
12:58 PM 55.6 °F - 30.0 °F 38% 29.87 in 10.0 mi Variable 3.5 mph - N/A   Clear
1:58 PM 56.5 °F - 29.5 °F 36% 29.84 in 10.0 mi Variable 1.2 mph - N/A   Mostly Cloudy
2:58 PM 56.5 °F - 31.6 °F 39% 29.85 in 10.0 mi North 10.4 mph - N/A   Overcast
3:15 PM 55.4 °F - 32.0 °F 41% 29.85 in 10.0 mi North 10.4 mph - N/A   Light Drizzle
3:33 PM 53.6 °F - 32.0 °F 44% 29.86 in 10.0 mi NE 8.1 mph - N/A   Overcast
3:35 PM 53.6 °F - 32.0 °F 44% 29.86 in 10.0 mi NE 8.1 mph - N/A   Light Drizzle
3:36 PM 53.6 °F - 32.0 °F 44% 29.86 in 10.0 mi NE 6.9 mph - N/A   Mostly Cloudy
3:58 PM 54.9 °F - 30.6 °F 40% 29.86 in 10.0 mi ENE 5.8 mph - 0.00 in   Mostly Cloudy
4:18 PM 55.4 °F - 32.0 °F 41% 29.86 in 10.0 mi West 19.6 mph - N/A   Light Drizzle
4:28 PM 53.6 °F - 32.0 °F 44% 29.87 in 10.0 mi WNW 12.7 mph - N/A   Overcast
4:31 PM 53.6 °F - 32.0 °F 44% 29.88 in 10.0 mi WNW 13.8 mph - N/A   Overcast
4:32 PM 53.6 °F - 32.0 °F 44% 29.87 in 10.0 mi WNW 13.8 mph - N/A   Light Drizzle
5:11 PM 51.8 °F - 33.8 °F 50% 29.88 in 10.0 mi ENE 8.1 mph - N/A   Scattered Clouds
5:58 PM 51.4 °F - 34.7 °F 53% 29.90 in 10.0 mi NE 8.1 mph - 0.00 in   Mostly Cloudy
6:10 PM 50.0 °F - 33.8 °F 54% 29.91 in 10.0 mi ENE 8.1 mph - N/A   Light Drizzle
6:27 PM 50.0 °F - 37.4 °F 62% 29.91 in 10.0 mi East 10.4 mph - N/A   Overcast
6:58 PM 50.0 °F - 35.6 °F 58% 29.92 in 10.0 mi East 10.4 mph - 0.00 in   Mostly Cloudy
7:58 PM 48.7 °F - 36.1 °F 62% 29.94 in 10.0 mi SSE 8.1 mph - N/A   Mostly Cloudy
8:58 PM 48.2 °F - 35.4 °F 61% 29.96 in 10.0 mi SSE 4.6 mph - N/A   Mostly Cloudy
9:58 PM 48.2 °F - 34.7 °F 60% 29.97 in 10.0 mi North 4.6 mph - N/A   Overcast
10:58 PM 46.9 °F - 34.3 °F 62% 29.97 in 10.0 mi North 4.6 mph - N/A   Scattered Clouds
11:58 PM 46.8 °F - 34.5 °F 62% 29.98 in 10.0 mi Calm Calm - N/A   Mostly Cloudy